Location: Cahoon Acres
(40.8736°N, 111.8994°W)
Time: 09:08:46
(UTC+00:00)

SR - Pass Details

Date: 09 June 2020
Orbit: 583 x 872 km, 66.7° (Epoch: 03 July)

Event Time Altitude Azimuth Distance (km) Brightness Sun altitude
Rises 04:53:47 0° 334° (NNW) 2,861 ? -16.9°
Reaches altitude 10° 04:56:07 10° 339° (NNW) 1,932 ? -17.2°
Maximum altitude 05:00:19 52° 57° (ENE) 727 ? -17.6°
Enters shadow 05:01:49 34° 114° (ESE) 966 ? -17.8°
Drops below altitude 10° 05:04:27 10° 135° (SE) 1,901 - -18.1°
Sets 05:06:43 0° 140° (SE) 2,809 - -18.3°
